HIMAWARI-9

Last updated on Thu Apr 09 2026 00:02:23 GMT+0000 (Coordinated Universal Time)

1 41836U 16064A 26098.50877844 -.00000273 00000+0 00000+0 0 9998 2 41836 0.0176 175.4545 0001504 228.7052 116.5370 1.00271673 34518
UTC large
Height (km)
Speed (km/s)
/
Latitude / Longitude
Inclination (degrees)
Orbital Period (minutes)
Azimuth
Elevation
Range (km)
Doppler Factor

Next 0 passes for location: London (51.5072 / 0.1276)

Sorry there are no passes over London.